| time (UTC) | temp C | wind direction | speed KPH | gust KPH | rain 1hr cm | rain 24hr cm | rain mn cm | humidity % | barometer mb |
| 20260507013211 | 8 | 275 | 0.0 | 1.6 | 0.00 | 0.94 | 0.00 | 92 | 1013.1 |
| 20260507012209 | 8 | 325 | 0.0 | 1.6 | 0.00 | 0.94 | 0.00 | 92 | 1013.1 |
| 20260507004943 | 8 | 216 | 0.0 | 4.8 | 0.00 | 1.04 | 0.00 | 92 | 1012.8 |
| 20260507003950 | 8 | 221 | 0.0 | 4.8 | 0.00 | 1.07 | 0.00 | 93 | 1012.8 |
| 20260507003012 | 8 | 221 | 0.0 | 3.2 | 0.00 | 1.12 | 0.00 | 93 | 1012.8 |
| 20260507000852 | 8 | 232 | 0.0 | 3.2 | 0.00 | 1.17 | 0.00 | 93 | 1012.7 |
| 20260506235847 | 8 | 240 | 0.0 | 3.2 | 0.00 | 1.19 | 0.00 | 93 | 1012.7 |
| 20260506234852 | 8 | 254 | 0.0 | 1.6 | 0.00 | 1.22 | 0.00 | 94 | 1012.8 |
| 20260506233828 | 8 | 279 | 0.0 | 1.6 | 0.00 | 1.22 | 0.00 | 93 | 1012.8 |
| 20260506231726 | 8 | 337 | 0.0 | 0.0 | 0.00 | 1.30 | 0.00 | 93 | 1012.7 |
| 20260506230724 | 8 | 337 | 0.0 | 1.6 | 0.00 | 1.32 | 0.00 | 94 | 1012.6 |
| 20260506225719 | 8 | 19 | 0.0 | 1.6 | 0.00 | 1.35 | 0.00 | 94 | 1012.6 |
| 20260506224721 | 8 | 319 | 0.0 | 1.6 | 0.00 | 1.35 | 0.00 | 94 | 1012.6 |
| 20260506223700 | 8 | 5 | 0.0 | 3.2 | 0.00 | 1.40 | 0.00 | 94 | 1012.4 |
| 20260506222644 | 8 | 338 | 0.0 | 4.8 | 0.00 | 1.40 | 0.00 | 94 | 1012.4 |
| 20260506221633 | 8 | 304 | 0.0 | 6.4 | 0.00 | 1.45 | 0.00 | 94 | 1012.2 |
| 20260506214358 | 8 | 351 | 1.6 | 4.8 | 0.00 | 1.50 | 1.50 | 94 | 1011.9 |
| 20260506213420 | 8 | 289 | 0.0 | 4.8 | 0.00 | 1.50 | 1.50 | 94 | 1011.8 |
| 20260506212348 | 8 | 26 | 0.0 | 3.2 | 0.00 | 1.52 | 1.50 | 94 | 1011.7 |
| 20260506211330 | 8 | 355 | 1.6 | 9.7 | 0.00 | 1.52 | 1.50 | 94 | 1011.7 |
| 20260506210338 | 8 | 337 | 1.6 | 9.7 | 0.00 | 1.52 | 1.50 | 94 | 1011.6 |
| 20260506205306 | 8 | 355 | 0.0 | 6.4 | 0.00 | 1.55 | 1.50 | 94 | 1011.6 |
| 20260506204325 | 8 | 0 | 0.0 | 6.4 | 0.00 | 1.55 | 1.50 | 95 | 1011.6 |
| 20260506203340 | 8 | 9 | 0.0 | 6.4 | 0.00 | 1.57 | 1.50 | 95 | 1011.7 |
| 20260506202323 | 8 | 0 | 0.0 | 6.4 | 0.00 | 1.57 | 1.50 | 95 | 1011.7 |
| 20260506201254 | 8 | 351 | 0.0 | 3.2 | 0.00 | 1.57 | 1.50 | 95 | 1011.6 |
| 20260506200301 | 8 | 329 | 0.0 | 1.6 | 0.00 | 1.57 | 1.50 | 95 | 1011.4 |
| 20260506195311 | 8 | 340 | 0.0 | 6.4 | 0.00 | 1.57 | 1.50 | 95 | 1011.3 |
| 20260506194303 | 8 | 309 | 0.0 | 6.4 | 0.00 | 1.60 | 1.50 | 95 | 1011.3 |
| 20260506193240 | 8 | 246 | 0.0 | 4.8 | 0.00 | 1.60 | 1.50 | 95 | 1011.2 |
| 20260506192211 | 8 | 344 | 0.0 | 4.8 | 0.00 | 1.60 | 1.50 | 95 | 1011.1 |
| 20260506191228 | 8 | 317 | 1.6 | 11.3 | 0.00 | 1.60 | 1.50 | 95 | 1011.0 |
| 20260506190213 | 8 | 282 | 0.0 | 11.3 | 0.00 | 1.63 | 1.50 | 94 | 1010.8 |
| 20260506185219 | 8 | 228 | 0.0 | 4.8 | 0.00 | 1.63 | 1.50 | 95 | 1010.8 |
| 20260506184233 | 8 | 219 | 0.0 | 4.8 | 0.00 | 1.63 | 1.50 | 95 | 1010.7 |
| 20260506183209 | 8 | 294 | 0.0 | 4.8 | 0.00 | 1.63 | 1.50 | 94 | 1010.6 |
| 20260506182216 | 8 | 336 | 0.0 | 1.6 | 0.00 | 1.63 | 1.50 | 94 | 1010.5 |
| 20260506181208 | 8 | 261 | 0.0 | 4.8 | 0.00 | 1.63 | 1.50 | 94 | 1010.4 |
| 20260506180231 | 8 | 324 | 0.0 | 4.8 | 0.00 | 1.63 | 1.50 | 94 | 1010.4 |
| 20260506175225 | 8 | 345 | 0.0 | 6.4 | 0.00 | 1.63 | 1.50 | 94 | 1010.2 |
| 20260506174235 | 8 | 238 | 0.0 | 6.4 | 0.00 | 1.63 | 1.50 | 94 | 1010.1 |
| 20260506173222 | 8 | 351 | 0.0 | 6.4 | 0.00 | 1.63 | 1.50 | 94 | 1010.0 |
| 20260506172236 | 8 | 327 | 1.6 | 8.0 | 0.00 | 1.63 | 1.50 | 94 | 1009.8 |
| 20260506171237 | 8 | 326 | 1.6 | 8.0 | 0.00 | 1.63 | 1.50 | 94 | 1009.8 |
| 20260506170210 | 9 | 9 | 0.0 | 8.0 | 0.00 | 1.63 | 1.50 | 94 | 1009.8 |
| 20260506165206 | 9 | 295 | 0.0 | 6.4 | 0.00 | 1.60 | 1.47 | 94 | 1009.8 |
| 20260506164218 | 9 | 44 | 0.0 | 6.4 | 0.00 | 1.60 | 1.47 | 94 | 1009.7 |
| 20260506163240 | 9 | 351 | 1.6 | 9.7 | 0.00 | 1.60 | 1.47 | 93 | 1009.7 |
| 20260506162249 | 9 | 278 | 1.6 | 9.7 | 0.00 | 1.60 | 1.47 | 92 | 1009.7 |
| 20260506161232 | 9 | 256 | 1.6 | 6.4 | 0.00 | 1.60 | 1.47 | 93 | 1009.6 |
| 20260506160205 | 9 | 60 | 1.6 | 8.0 | 0.00 | 1.60 | 1.47 | 93 | 1009.5 |
| 20260506155142 | 9 | 5 | 1.6 | 8.0 | 0.00 | 1.60 | 1.47 | 93 | 1009.3 |
| 20260506154107 | 9 | 335 | 0.0 | 8.0 | 0.00 | 1.60 | 1.47 | 93 | 1009.3 |
| 20260506153049 | 9 | 310 | 1.6 | 8.0 | 0.00 | 1.60 | 1.47 | 93 | 1009.3 |
| 20260506152036 | 9 | 337 | 1.6 | 8.0 | 0.00 | 1.60 | 1.47 | 93 | 1009.4 |
| 20260506145900 | 9 | 320 | 1.6 | 8.0 | 0.00 | 1.60 | 1.47 | 93 | 1009.2 |
| 20260506144837 | 9 | 265 | 1.6 | 6.4 | 0.00 | 1.60 | 1.47 | 93 | 1009.2 |
| 20260506143854 | 9 | 217 | 0.0 | 8.0 | 0.00 | 1.60 | 1.47 | 94 | 1009.2 |
| 20260506141732 | 10 | 9 | 0.0 | 6.4 | 0.00 | 1.60 | 1.47 | 94 | 1009.0 |
| 20260506140738 | 9 | 338 | 1.6 | 6.4 | 0.00 | 1.60 | 1.47 | 94 | 1009.1 |
| 20260506135712 | 10 | 271 | 1.6 | 8.0 | 0.00 | 1.60 | 1.47 | 94 | 1009.1 |
| 20260506134654 | 10 | 338 | 1.6 | 9.7 | 0.08 | 1.60 | 1.47 | 95 | 1009.0 |
| 20260506132504 | 9 | 327 | 1.6 | 11.3 | 0.15 | 1.57 | 1.45 | 94 | 1009.0 |
| 20260506131449 | 9 | 275 | 3.2 | 11.3 | 0.10 | 1.57 | 1.42 | 93 | 1009.0 |
| 20260506130428 | 10 | 260 | 3.2 | 9.7 | 0.10 | 1.55 | 1.40 | 94 | 1008.8 |
| 20260506125359 | 10 | 344 | 1.6 | 6.4 | 0.08 | 1.52 | 1.40 | 95 | 1008.7 |
| 20260506123308 | 10 | 328 | 1.6 | 14.5 | 0.08 | 1.50 | 1.35 | 94 | 1008.6 |
| 20260506122240 | 10 | 12 | 1.6 | 14.5 | 0.10 | 1.47 | 1.32 | 94 | 1008.4 |
| 20260506121222 | 10 | 351 | 3.2 | 9.7 | 0.08 | 1.45 | 1.30 | 94 | 1008.4 |
| 20260506120159 | 10 | 17 | 1.6 | 9.7 | 0.10 | 1.42 | 1.30 | 94 | 1008.4 |
| 20260506115223 | 10 | 349 | 0.0 | 14.5 | 0.10 | 1.40 | 1.27 | 94 | 1008.3 |
| 20260506114233 | 10 | 334 | 1.6 | 14.5 | 0.10 | 1.40 | 1.24 | 93 | 1008.2 |
| 20260506113233 | 10 | 9 | 1.6 | 8.0 | 0.08 | 1.37 | 1.22 | 94 | 1008.2 |
| 20260506111107 | 10 | 217 | 1.6 | 8.0 | 0.08 | 1.32 | 1.19 | 94 | 1008.1 |
| 20260506104936 | 10 | 355 | 0.0 | 8.0 | 0.08 | 1.30 | 1.14 | 94 | 1008.0 |
| 20260506103936 | 10 | 233 | 1.6 | 6.4 | 0.10 | 1.27 | 1.12 | 95 | 1008.0 |
| 20260506102909 | 10 | 349 | 1.6 | 6.4 | 0.00 | 1.24 | 1.12 | 94 | 1007.9 |
| 20260506101911 | 10 | 21 | 0.0 | 6.4 | 0.00 | 1.22 | 1.09 | 95 | 1007.8 |
| 20260506100935 | 10 | 229 | 1.6 | 8.0 | 0.00 | 1.22 | 1.09 | 94 | 1007.7 |
| 20260506095914 | 10 | 355 | 0.0 | 8.0 | 0.00 | 1.22 | 1.07 | 94 | 1007.7 |
| 20260506094900 | 10 | 342 | 0.0 | 8.0 | 0.08 | 1.22 | 1.07 | 95 | 1007.6 |
| 20260506093900 | 10 | 335 | 0.0 | 6.4 | 0.08 | 1.22 | 1.07 | 95 | 1007.6 |
| 20260506092911 | 10 | 249 | 0.0 | 6.4 | 0.08 | 1.19 | 1.04 | 95 | 1007.6 |
| 20260506091928 | 10 | 315 | 0.0 | 6.4 | 0.00 | 1.17 | 1.02 | 94 | 1007.4 |
| 20260506090951 | 10 | 14 | 1.6 | 6.4 | 0.00 | 1.17 | 1.02 | 94 | 1007.4 |
| 20260506085936 | 10 | 338 | 1.6 | 8.0 | 0.00 | 1.14 | 1.02 | 94 | 1007.3 |
| 20260506084940 | 10 | 349 | 1.6 | 8.0 | 0.00 | 1.14 | 1.02 | 94 | 1007.2 |
| 20260506083938 | 10 | 336 | 1.6 | 4.8 | 0.00 | 1.14 | 1.02 | 95 | 1007.1 |
| 20260506082956 | 10 | 332 | 0.0 | 4.8 | 0.00 | 1.14 | 1.02 | 95 | 1007.0 |
| 20260506081939 | 10 | 325 | 0.0 | 4.8 | 0.00 | 1.14 | 1.02 | 95 | 1006.9 |
| 20260506072730 | 10 | 313 | 0.0 | 4.8 | 0.00 | 1.12 | 0.99 | 95 | 1006.6 |
| 20260506071752 | 10 | 306 | 0.0 | 6.4 | 0.00 | 1.12 | 0.97 | 95 | 1006.6 |
| 20260506070751 | 10 | 10 | 1.6 | 6.4 | 0.00 | 1.12 | 0.97 | 95 | 1006.6 |
| 20260506060417 | 10 | 342 | 0.0 | 4.8 | 0.00 | 1.09 | 0.94 | 95 | 1006.3 |
| 20260506051152 | 10 | 12 | 0.0 | 4.8 | 0.10 | 1.04 | 0.91 | 95 | 1006.3 |
| 20260506050136 | 10 | 344 | 0.0 | 4.8 | 0.25 | 1.02 | 0.89 | 95 | 1006.4 |
| 20260506045117 | 10 | 336 | 0.0 | 3.2 | 0.28 | 0.99 | 0.84 | 95 | 1006.3 |
| 20260506044137 | 10 | 277 | 0.0 | 1.6 | 0.18 | 0.94 | 0.81 | 95 | 1006.4 |
| 20260506043203 | 10 | 236 | 0.0 | 3.2 | 0.00 | 0.94 | 0.79 | 95 | 1006.4 |
| 20260506042156 | 10 | 257 | 0.0 | 3.2 | 0.00 | 0.91 | 0.76 | 95 | 1006.4 |
| 20260506041220 | 10 | 246 | 0.0 | 8.0 | 0.00 | 0.91 | 0.74 | 95 | 1006.4 |
| 20260506040214 | 10 | 345 | 0.0 | 8.0 | 0.08 | 0.91 | 0.74 | 95 | 1006.5 |
| 20260506035220 | 10 | 224 | 0.0 | 4.8 | 0.08 | 0.91 | 0.74 | 95 | 1006.5 |
| 20260506034152 | 10 | 331 | 0.0 | 4.8 | 0.08 | 0.89 | 0.74 | 95 | 1006.4 |
| 20260506033200 | 10 | 261 | 0.0 | 4.8 | 0.08 | 0.89 | 0.71 | 95 | 1006.4 |
| 20260506032148 | 10 | 234 | 0.0 | 8.0 | 0.08 | 0.86 | 0.69 | 95 | 1006.4 |
| 20260506031201 | 10 | 333 | 0.0 | 8.0 | 0.18 | 0.89 | 0.69 | 95 | 1006.4 |
| 20260506030134 | 10 | 329 | 0.0 | 4.8 | 0.08 | 0.86 | 0.64 | 95 | 1006.6 |
| 20260506025123 | 10 | 355 | 0.0 | 4.8 | 0.10 | 0.84 | 0.64 | 95 | 1006.7 |
| 20260506024145 | 10 | 329 | 0.0 | 6.4 | 0.08 | 0.84 | 0.64 | 95 | 1006.8 |
| 20260506023117 | 10 | 217 | 0.0 | 6.4 | 0.08 | 0.86 | 0.61 | 95 | 1006.9 |
| 20260506021017 | 10 | 260 | 0.0 | 1.6 | 0.00 | 0.84 | 0.58 | 95 | 1007.0 |